Overview Statistics Trail Chart Weather Telemetry Raw packets
 

This is the latest recevied weather packets stored in our database for station/object HB9TJR-3. If no packets are shown the sender has not sent any weather packets the latest 10 day(s).

<< 37 38 39 40 41 42 43 >>
Time Temp. Humidity Pressure Rain* Wind** Luminosity Snow
1787819491 20.56° C 69% 867.3 hPa 0 mm - - -
1787818531 20.56° C 68% 867.4 hPa 0 mm - - -
1787817572 20.56° C 67% 867.6 hPa 0 mm - - -
1787816612 20.56° C 68% 867.6 hPa 0 mm - - -
1787815651 20.56° C 68% 867.4 hPa 0 mm - - -
1787814691 20° C 65% 867.4 hPa 0 mm - - -
1787813731 19.44° C 68% 867.5 hPa 0 mm - - -
1787811811 19.44° C 70% 867.5 hPa 0 mm - - -
1787810851 18.89° C 73% 867.6 hPa 0 mm - - -
1787809891 18.33° C 72% 867.6 hPa 0 mm - - -
1787808931 18.33° C 71% 867.5 hPa 0 mm - - -
1787807971 18.33° C 69% 867 hPa 0 mm - - -
1787807011 18.33° C 71% 866.6 hPa 0 mm - - -
1787806051 18.33° C 72% 866.5 hPa 0 mm - - -
1787805091 18.33° C 71% 866.5 hPa 0 mm - - -
1787804131 18.33° C 71% 866.5 hPa 0 mm - - -
1787802211 18.33° C 72% 866.3 hPa 0 mm - - -
1787801251 18.33° C 73% 866.5 hPa 0 mm - - -
1787800291 18.33° C 73% 866.5 hPa 0 mm - - -
1787799331 18.33° C 73% 866.6 hPa 0 mm - - -
1787798376 18.33° C 74% 866.6 hPa 0 mm - - -
1787796451 18.33° C 76% 866.6 hPa 0 mm - - -
1787795548 18.33° C 75% 866.4 hPa 0 mm - - -
1787795491 18.33° C 75% 866.4 hPa 0 mm - - -
1787794531 18.33° C 77% 866.4 hPa 0 mm - - -

* Rain latest hour (hover to see other rain measurements)
** Current wind speed in m/s (hover to see current wind gust speed)